軌道要素
Epoch 2022 Aug. 9.0 TT = JDT 2459800.5
T 2024 Sept. 13.76857 TT Rudenko
q 3.6666251 (2000.0) P Q
z -0.0004060 Peri. 41.66907 -0.03474663 +0.83130311
+/-0.0000091 Node 125.35414 +0.63783124 -0.40887640
e 1.0014885 Incl. 137.14388 +0.76939195 +0.37650396
From 202 observations 2022 Feb. 23-July 8, mean residual 0".4.
|